{"data":{"norad_id":58298,"epoch":"2026-05-25T05:23:56.988960Z","epoch_age_seconds":65992,"freshness":"FRESH","line1":"1 58298U 23174AU  26145.22496515  .00004311  00000+0  16328-3 0  9992","line2":"2 58298  97.3844 221.9577 0007639 265.2034  94.8333 15.27426135141270","mean_motion":15.27426135,"eccentricity":0.0007639,"inclination_deg":97.3844,"raan_deg":221.9577,"arg_perigee_deg":265.2034,"mean_anomaly_deg":94.8333,"bstar":0.00016328,"rev_number":14127,"period_min":94.276244657815,"perigee_km":478.26824984013,"apogee_km":488.75147391571,"semimajor_km":6861.6468618779,"source":"CELESTRAK","updated_at":"2026-05-25T13:38:00.646787Z"}}